This is the latest recevied weather packets stored in our database for station/object KB4MOX. If no packets are shown the sender has not sent any weather packets the latest 10 day(s).
| Time | Temp. | Humidity | Pressure | Rain* | Wind** | Luminosity | Snow |
|---|---|---|---|---|---|---|---|
| 1787967662 | 25° C | 88% | 1017.3 hPa | 0 mm | - | 0 W/m² | - |
| 1787967361 | 25° C | 88% | 1017.3 hPa | 0 mm | - | 0 W/m² | - |
| 1787967057 | 25° C | 88% | 1017.3 hPa | 0 mm | - | 0 W/m² | - |
| 1787966755 | 25.56° C | 88% | 1017.2 hPa | 0 mm | - | 0 W/m² | - |
| 1787966454 | 25.56° C | 88% | 1017 hPa | 0 mm | - | 0 W/m² | - |
| 1787966149 | 25° C | 89% | 1017.1 hPa | 0 mm | - | 0 W/m² | - |
| 1787965848 | 25° C | 90% | 1017.1 hPa | 0 mm | - | 0 W/m² | - |
| 1787965543 | 25° C | 89% | 1017.1 hPa | 0 mm | - | 0 W/m² | - |
| 1787965239 | 25° C | 89% | 1017.2 hPa | 0 mm | - | 0 W/m² | - |
| 1787964933 | 25° C | 88% | 1017 hPa | 0 mm | - | 0 W/m² | - |
| 1787964628 | 25.56° C | 88% | 1017 hPa | 0 mm | - | 0 W/m² | - |
| 1787964328 | 25.56° C | 87% | 1017.2 hPa | 0 mm | - | 0 W/m² | - |
| 1787964027 | 25.56° C | 87% | 1017.1 hPa | 0 mm | - | 0 W/m² | - |
| 1787963727 | 25.56° C | 87% | 1017.1 hPa | 0 mm | - | 0 W/m² | - |
| 1787963422 | 25.56° C | 86% | 1017.1 hPa | 0 mm | - | 0 W/m² | - |
| 1787963118 | 26.11° C | 85% | 1017.1 hPa | 0 mm | - | 0 W/m² | - |
| 1787962817 | 26.11° C | 85% | 1016.9 hPa | 0 mm | - | 0 W/m² | - |
| 1787962515 | 26.11° C | 84% | 1016.8 hPa | 0 mm | - | 0 W/m² | - |
| 1787962214 | 26.67° C | 83% | 1016.8 hPa | 0 mm | - | 1 W/m² | - |
| 1787961909 | 26.67° C | 82% | 1016.8 hPa | 0 mm | - | 1 W/m² | - |
| 1787961609 | 26.67° C | 81% | 1016.7 hPa | 0 mm | - | 3 W/m² | - |
| 1787961302 | 27.22° C | 81% | 1016.7 hPa | 0 mm | - | 4 W/m² | - |
| 1787960997 | 27.22° C | 80% | 1016.8 hPa | 0 mm | - | 6 W/m² | - |
| 1787960692 | 27.22° C | 80% | 1017.1 hPa | 0 mm | - | 11 W/m² | - |
| 1787960390 | 27.78° C | 78% | 1017 hPa | 0 mm | - | 25 W/m² | - |
* Rain latest hour (hover to see other rain measurements)
** Current wind speed in m/s (hover to see current wind gust speed)